Regional Weather Roundup
Issued by NWS Albany, NY

Home | Current Version | Previous Version | Text Only | Print | Product List | Glossary On
Versions: 1 2 3 4 5 6 7 8 9 10 11 12 13 14 15 16 17 18 19 20 21 22 23 24 25 26 27 28
000
ASUS41 KALY 191110
RWRALY

NEW YORK STATE HOURLY WEATHER ROUNDUP
NATIONAL WEATHER SERVICE ALBANY NY
600 AM EST SUN NOV 19 2017

NOTE: "FAIR" INDICATES FEW OR NO CLOUDS BELOW 12,000 FEET WITH NO
SIGNIFICANT WEATHER AND/OR NO OBSTRUCTIONS TO VISIBILITY.

NYZ032-033-038>043-046>054-057>066-NYZ062>081-082-084-191200-
EAST


CITY           SKY/WX    TMP DP  RH WIND       PRES   REMARKS
ALBANY         CLOUDY    51  47  86 S16G30    29.10F
GLENS FALLS    LGT RAIN  43  43 100 CALM      29.08F FOG
POUGHKEEPSIE   LGT RAIN  54  51  90 S3        29.16F
NEWBURGH       CLOUDY    55  55 100 SW9       29.16
MONTGOMERY     LGT RAIN  45  44  97 CALM      29.16F FOG
WHITE PLAINS   LGT RAIN  58  55  90 S10G21    29.21F
ISLIP          LGT RAIN  57  56  96 S20G26    29.26F FOG
NEW YORK CITY  LGT RAIN  59  56  89 SW21G30   29.23F
CENTRAL PARK   LGT RAIN  59  56  89 SW8G24    29.25F
$$

NYZ005>009-017-018-044>046-055-056-191200-
CENTRAL


CITY           SKY/WX    TMP DP  RH WIND       PRES   REMARKS
FULTON         LGT RAIN  37  35  92 W20G30    29.22R WCI  27
SYRACUSE       LGT RAIN  38  36  92 W26G37    29.21R WCI  26
ROME           LGT RAIN  45  43  93 W28G41    29.12R FOG
ELMIRA         LGT RAIN  40  35  83 W21G29    29.32R WCI  30
BINGHAMTON     LGT RAIN  39  37  92 W17G36    29.20R WCI  30
MONTICELLO     LGT RAIN  52  50  93 SW9G16    29.17S
$$

NYZ026>034-041>043-087-191200-
NORTH


CITY           SKY/WX    TMP DP  RH WIND       PRES   REMARKS
WATERTOWN      LGT RAIN  34  33  96 N15       29.15R FOG     WCI  24
FORT DRUM      NOT AVBL
OGDENSBURG     LGT SNOW  33  33  97 NW12      29.12R WCI  25
MASSENA        RAIN      34  34 100 NW9       29.11R WCI  27
SARANAC LAKE   LGT RAIN  42  42 100 CALM      28.99F FOG
PLATTSBURGH    RAIN      44  42  93 S3        29.03F FOG
$$

NYZ001>004-010>016-019>021-085-191200-
WEST


CITY           SKY/WX    TMP DP  RH WIND       PRES   REMARKS
NIAGARA FALLS  CLOUDY    39  33  79 NW18G28   29.46R WCI  30
BUFFALO        FLURRIES  36  33  89 W12G22    29.45R WCI  28
DUNKIRK        CLOUDY    39  32  76 W21G35    29.53R WCI  29
JAMESTOWN      MIX PCPN  33  31  92 NW18G29   29.50R WCI  22
WELLSVILLE     LGT SNOW  35  30  82 NW24G38   29.39R WCI  23
ROCHESTER      LGT SNOW  34  33  96 NW22G35   29.36R FOG     WCI  22
PENN YAN       FLURRIES  36  31  82 W17G28    29.32R WCI  26
$$

             KEY
       WCI = WIND CHILL INDEX
       VSB = VISIBILITY
       HX  = HEAT INDEX
$$




USA.gov is the U.S. government's official web portal to all federal, state and local government web resources and services.